Location: New Frontier Mobile Home Park
(32.8448°N, 116.9675°W)
Time: 21:49:30
(UTC+00:00)

BREEZE-M DEB (TANK) - Pass Details

Date: 14 July 2020
Orbit: 365 x 18682 km, 52.5° (Epoch: 05 August)

Event Time Altitude Azimuth Distance (km) Brightness Sun altitude
Exits shadow 09:52:50 56° 263° (W) 1,360 4.4 -28.6°
Maximum altitude 09:54:12 72° 323° (NW) 1,441 4.8 -28.5°
Drops below altitude 10° 10:15:17 10° 47° (NE) 9,127 10.0 -26.0°
Sets 10:30:55 0° 51° (NE) 13,652 11.2 -23.9°
